This is the latest recevied weather packets stored in our database for station/object N9CQL. If no packets are shown the sender has not sent any weather packets the latest 10 day(s).
| Time | Temp. | Humidity | Pressure | Rain* | Wind** | Luminosity | Snow |
|---|---|---|---|---|---|---|---|
| 1778114970 | 10.56° C | 44% | 1013.3 hPa | 0 mm | - | 3 W/m² | - |
| 1778114667 | 10.56° C | 44% | 1013.3 hPa | 0 mm | - | 5 W/m² | - |
| 1778114364 | 11.11° C | 44% | 1013.5 hPa | 0 mm | - | 6 W/m² | - |
| 1778114059 | 11.11° C | 44% | 1013.4 hPa | 0 mm | - | 10 W/m² | - |
| 1778113754 | 11.11° C | 43% | 1013.1 hPa | 0 mm | - | 13 W/m² | - |
| 1778113451 | 11.11° C | 42% | 1013.3 hPa | 0 mm | - | 19 W/m² | - |
| 1778113148 | 11.67° C | 42% | 1013.3 hPa | 0 mm | - | 21 W/m² | - |
| 1778112845 | 11.67° C | 43% | 1013.1 hPa | 0 mm | - | 20 W/m² | - |
| 1778112543 | 11.67° C | 43% | 1012.8 hPa | 0 mm | - | 31 W/m² | - |
| 1778112237 | 11.67° C | 44% | 1012.8 hPa | 0 mm | - | 33 W/m² | - |
| 1778111934 | 11.67° C | 43% | 1012.7 hPa | 0 mm | - | 30 W/m² | - |
| 1778111631 | 11.67° C | 43% | 1012.6 hPa | 0 mm | - | 32 W/m² | - |
| 1778111326 | 12.22° C | 41% | 1012.8 hPa | 0 mm | - | 39 W/m² | - |
| 1778111024 | 12.22° C | 43% | 1012.7 hPa | 0 mm | - | 55 W/m² | - |
| 1778110722 | 12.78° C | 41% | 1012.6 hPa | 0 mm | - | 57 W/m² | - |
| 1778110418 | 13.33° C | 41% | 1012.6 hPa | 0 mm | - | 67 W/m² | - |
| 1778110115 | 13.33° C | 41% | 1012.6 hPa | 0 mm | - | 129 W/m² | - |
| 1778109811 | 12.78° C | 40% | 1012.5 hPa | 0 mm | - | 82 W/m² | - |
| 1778109507 | 12.22° C | 41% | 1012.5 hPa | 0 mm | - | 147 W/m² | - |
| 1778109205 | 12.78° C | 42% | 1012.5 hPa | 0 mm | - | 64 W/m² | - |
| 1778108902 | 13.33° C | 40% | 1012.3 hPa | 0 mm | - | 83 W/m² | - |
| 1778108599 | 13.89° C | 40% | 1012.2 hPa | 0 mm | - | 124 W/m² | - |
| 1778108295 | 13.89° C | 39% | 1012.4 hPa | 0 mm | - | 273 W/m² | - |
| 1778107992 | 12.78° C | 41% | 1012.5 hPa | 0 mm | - | 280 W/m² | - |
| 1778107689 | 12.78° C | 41% | 1012.6 hPa | 0 mm | - | 100 W/m² | - |
* Rain latest hour (hover to see other rain measurements)
** Current wind speed in m/s (hover to see current wind gust speed)